QTR2R LIRF-OTHH

Flight info

Callsign QTR2R
Flight time N/A
Altitude 41000
Route KONUT L50 PEPIX DCT EDOPA DCT PEVIR DCT DELER DCT BELIX DCT SALUN N705 MMA DCT FYM M872 WEJ L604 KFA M691 LADNA N318 HAYYA
Aircraft A359/H-SDE2E3GHIJ3J4J5LM1ORWXY/LB1D1

Departure

Time N/A
Airport Rome–Fiumicino Leonardo da Vinci International Airport (LIRF)

Arrival

Time 2026-05-05 12:03
Airport Hamad International Airport (OTHH)
Time Latitude Longitude Altitude Speed Heading
2026-05-05 08:10 37.18633 18.69112 41168 ft 523 kts 132°
2026-05-05 08:10 37.16218 18.72522 41167 ft 523 kts 132°
2026-05-05 08:10 37.11412 18.79297 41165 ft 524 kts 132°
2026-05-05 08:11 37.06565 18.86115 41167 ft 524 kts 132°
2026-05-05 08:11 37.01717 18.92919 41167 ft 524 kts 132°
2026-05-05 08:12 36.96884 18.99735 41164 ft 524 kts 129°
2026-05-05 08:12 36.92722 19.07191 41170 ft 524 kts 121°
2026-05-05 08:13 36.88952 19.14985 41173 ft 524 kts 121°
2026-05-05 08:13 36.85160 19.22766 41170 ft 524 kts 121°
2026-05-05 08:14 36.81292 19.30487 41172 ft 524 kts 122°
2026-05-05 08:14 36.77392 19.38169 41169 ft 524 kts 122°
2026-05-05 08:15 36.73483 19.45841 41176 ft 524 kts 122°
2026-05-05 08:15 36.69596 19.53460 41177 ft 524 kts 122°
2026-05-05 08:16 36.65675 19.61132 41176 ft 524 kts 122°
2026-05-05 08:16 36.61752 19.68793 41175 ft 524 kts 122°
2026-05-05 08:17 36.57825 19.76444 41176 ft 524 kts 122°
2026-05-05 08:17 36.53891 19.84093 41179 ft 524 kts 122°
2026-05-05 08:18 36.49954 19.91728 41178 ft 525 kts 122°
2026-05-05 08:18 36.46009 19.99363 41176 ft 525 kts 122°
2026-05-05 08:19 36.42057 20.06994 41179 ft 525 kts 122°
2026-05-05 08:19 36.38124 20.14571 41181 ft 525 kts 122°
2026-05-05 08:20 36.34158 20.22194 41173 ft 526 kts 122°
2026-05-05 08:20 36.30186 20.29811 41177 ft 526 kts 122°
2026-05-05 08:21 36.26212 20.37417 41176 ft 526 kts 123°
2026-05-05 08:21 36.22226 20.45027 41176 ft 526 kts 123°
2026-05-05 08:22 36.18242 20.52618 41178 ft 526 kts 123°
2026-05-05 08:22 36.14248 20.60209 41175 ft 526 kts 123°
2026-05-05 08:23 36.10248 20.67797 41172 ft 527 kts 123°
2026-05-05 08:23 36.06268 20.75327 41172 ft 527 kts 123°
2026-05-05 08:24 36.02254 20.82907 41178 ft 527 kts 123°
2026-05-05 08:24 35.98237 20.90478 41172 ft 528 kts 123°
2026-05-05 08:25 35.94206 20.98055 41170 ft 528 kts 123°
2026-05-05 08:25 35.90172 21.05622 41171 ft 528 kts 123°
2026-05-05 08:26 35.86130 21.13189 41169 ft 528 kts 123°
2026-05-05 08:26 35.82083 21.20746 41171 ft 529 kts 123°
2026-05-05 08:27 35.78027 21.28305 41171 ft 529 kts 123°
2026-05-05 08:27 35.73961 21.35866 41168 ft 529 kts 123°
2026-05-05 08:28 35.69890 21.43419 41166 ft 530 kts 123°
2026-05-05 08:28 35.65837 21.50924 41170 ft 530 kts 123°
2026-05-05 08:29 35.61759 21.58458 41171 ft 530 kts 124°
2026-05-05 08:30 35.55630 21.69750 41173 ft 530 kts 124°
2026-05-05 08:30 35.51536 21.77272 41172 ft 530 kts 124°
2026-05-05 08:31 35.47437 21.84788 41172 ft 530 kts 124°
2026-05-05 08:31 35.43325 21.92312 41168 ft 531 kts 124°
2026-05-05 08:32 35.39210 21.99824 41163 ft 531 kts 124°
2026-05-05 08:32 35.35112 22.07360 41168 ft 532 kts 123°
2026-05-05 08:33 35.31009 22.14900 41171 ft 532 kts 123°
2026-05-05 08:33 35.26877 22.22421 41168 ft 533 kts 123°
2026-05-05 08:34 35.22755 22.29882 41168 ft 533 kts 124°
2026-05-05 08:34 35.18596 22.37391 41168 ft 533 kts 124°
2026-05-05 08:35 35.14430 22.44898 41166 ft 533 kts 124°
2026-05-05 08:35 35.10261 22.52394 41166 ft 534 kts 124°
2026-05-05 08:36 35.06083 22.59892 41162 ft 534 kts 124°
2026-05-05 08:36 35.01895 22.67392 41163 ft 535 kts 124°
2026-05-05 08:37 34.97703 22.74884 41158 ft 535 kts 124°
2026-05-05 08:37 34.93503 22.82373 41161 ft 535 kts 124°
2026-05-05 08:38 34.89295 22.89860 41158 ft 536 kts 124°
2026-05-05 08:38 34.85079 22.97347 41157 ft 536 kts 124°
2026-05-05 08:39 34.80860 23.04823 41154 ft 536 kts 124°
2026-05-05 08:39 34.76636 23.12293 41164 ft 536 kts 124°
2026-05-05 08:40 34.72406 23.19755 41155 ft 536 kts 124°
2026-05-05 08:40 34.68165 23.27223 41131 ft 536 kts 125°
2026-05-05 08:41 34.63948 23.34634 41152 ft 537 kts 125°
2026-05-05 08:41 34.59693 23.42095 41152 ft 537 kts 125°
2026-05-05 08:42 34.55432 23.49551 41149 ft 538 kts 125°
2026-05-05 08:42 34.51163 23.57005 41150 ft 538 kts 125°
2026-05-05 08:43 34.46887 23.64456 41146 ft 538 kts 125°
2026-05-05 08:43 34.42610 23.71893 41149 ft 538 kts 125°
2026-05-05 08:44 34.38326 23.79327 41149 ft 538 kts 125°
2026-05-05 08:44 34.34036 23.86756 41146 ft 539 kts 125°
2026-05-05 08:45 34.29736 23.94188 41140 ft 539 kts 126°
2026-05-05 08:45 34.25429 24.01616 41146 ft 539 kts 126°
2026-05-05 08:46 34.21143 24.08992 41144 ft 540 kts 126°
2026-05-05 08:46 34.16793 24.16461 41147 ft 540 kts 126°
2026-05-05 08:47 34.12492 24.23833 41148 ft 540 kts 126°
2026-05-05 08:47 34.08158 24.31245 41145 ft 540 kts 126°
2026-05-05 08:48 34.03818 24.38655 41153 ft 540 kts 126°
2026-05-05 08:48 33.99196 24.45771 41145 ft 538 kts 137°
2026-05-05 08:49 33.93751 24.51945 41131 ft 537 kts 140°
2026-05-05 08:49 33.88162 24.57940 41152 ft 537 kts 141°
2026-05-05 08:50 33.82555 24.63907 41154 ft 537 kts 141°
2026-05-05 08:50 33.77002 24.69835 41133 ft 537 kts 141°
2026-05-05 08:51 33.71417 24.75806 41136 ft 537 kts 141°
2026-05-05 08:51 33.65828 24.81775 41134 ft 537 kts 141°
2026-05-05 08:52 33.60242 24.87730 41140 ft 537 kts 141°
2026-05-05 08:52 33.54651 24.93678 41143 ft 537 kts 141°
2026-05-05 08:53 33.49059 24.99616 41143 ft 537 kts 141°
2026-05-05 08:53 33.43460 25.05551 41141 ft 538 kts 141°
2026-05-05 08:54 33.37848 25.11488 41144 ft 538 kts 141°
2026-05-05 08:54 33.33181 25.16418 41144 ft 538 kts 141°
2026-05-05 08:55 33.26655 25.23300 41143 ft 538 kts 141°
2026-05-05 08:55 33.21037 25.29212 41141 ft 538 kts 141°
2026-05-05 08:56 33.16326 25.34163 41148 ft 538 kts 141°
2026-05-05 08:56 33.10735 25.40027 41130 ft 539 kts 141°
2026-05-05 08:57 33.05060 25.45970 41148 ft 540 kts 141°
2026-05-05 08:57 32.99457 25.51827 41134 ft 539 kts 142°
2026-05-05 08:58 32.93815 25.57714 41142 ft 539 kts 142°
2026-05-05 08:58 32.88178 25.63586 41145 ft 539 kts 142°
2026-05-05 08:59 32.82536 25.69452 41143 ft 539 kts 142°
2026-05-05 08:59 32.76883 25.75319 41143 ft 539 kts 142°
2026-05-05 09:00 32.71227 25.81180 41143 ft 539 kts 142°
2026-05-05 09:00 32.65569 25.87032 41143 ft 539 kts 142°
2026-05-05 09:01 32.59919 25.92866 41146 ft 538 kts 142°
2026-05-05 09:01 32.54271 25.98689 41143 ft 538 kts 142°
2026-05-05 09:02 32.48609 26.04514 41139 ft 539 kts 142°
2026-05-05 09:02 32.42945 26.10331 41143 ft 539 kts 143°
2026-05-05 09:03 32.37279 26.16141 41133 ft 539 kts 142°
2026-05-05 09:03 32.31601 26.21953 41145 ft 540 kts 142°
2026-05-05 09:04 32.25921 26.27757 41144 ft 540 kts 143°
2026-05-05 09:04 32.20232 26.33560 41143 ft 541 kts 143°
2026-05-05 09:05 32.14568 26.39329 41147 ft 541 kts 143°
2026-05-05 09:05 32.08867 26.45124 41149 ft 541 kts 143°
2026-05-05 09:06 32.03168 26.50910 41146 ft 540 kts 143°
2026-05-05 09:06 31.97478 26.56675 41148 ft 539 kts 143°
2026-05-05 09:07 31.91788 26.62429 41148 ft 539 kts 143°
2026-05-05 09:07 31.86096 26.68176 41146 ft 539 kts 143°
2026-05-05 09:08 31.80405 26.73913 41147 ft 539 kts 143°
2026-05-05 09:08 31.74710 26.79644 41121 ft 539 kts 143°
2026-05-05 09:09 31.69016 26.85365 41146 ft 538 kts 143°
2026-05-05 09:09 31.63327 26.91071 41146 ft 538 kts 143°
2026-05-05 09:10 31.57667 26.96738 41149 ft 538 kts 143°
2026-05-05 09:10 31.51972 27.02431 41148 ft 538 kts 143°
2026-05-05 09:11 31.46271 27.08120 41147 ft 538 kts 144°
2026-05-05 09:11 31.40571 27.13800 41140 ft 537 kts 144°
2026-05-05 09:12 31.34885 27.19461 41159 ft 537 kts 144°
2026-05-05 09:12 31.29885 27.26015 41154 ft 544 kts 129°
2026-05-05 09:13 31.25523 27.33278 41157 ft 547 kts 127°
2026-05-05 09:13 31.21263 27.40649 41151 ft 547 kts 127°
2026-05-05 09:14 31.16992 27.48015 41142 ft 547 kts 127°
2026-05-05 09:14 31.12697 27.55355 41136 ft 547 kts 127°
2026-05-05 09:15 31.08388 27.62685 41137 ft 547 kts 127°
2026-05-05 09:15 31.04071 27.70011 41126 ft 547 kts 127°
2026-05-05 09:16 30.99790 27.77267 41125 ft 546 kts 127°
2026-05-05 09:16 30.95481 27.84554 41132 ft 546 kts 127°
2026-05-05 09:17 30.91170 27.91834 41131 ft 546 kts 128°
2026-05-05 09:17 30.86852 27.99111 41127 ft 546 kts 128°
2026-05-05 09:18 30.82527 28.06386 41127 ft 546 kts 128°
2026-05-05 09:18 30.78206 28.13643 41126 ft 546 kts 128°
2026-05-05 09:19 30.73870 28.20911 41136 ft 546 kts 128°
2026-05-05 09:19 30.69544 28.28171 41136 ft 546 kts 127°
2026-05-05 09:20 30.65224 28.35448 41124 ft 546 kts 127°
2026-05-05 09:20 30.60894 28.42683 41122 ft 546 kts 128°
2026-05-05 09:21 30.56560 28.49834 41121 ft 545 kts 128°
2026-05-05 09:21 30.52204 28.57032 41127 ft 545 kts 128°
2026-05-05 09:22 30.47855 28.64234 41126 ft 545 kts 128°
2026-05-05 09:22 30.43501 28.71442 41129 ft 545 kts 128°
2026-05-05 09:23 30.39146 28.78638 41137 ft 545 kts 128°
2026-05-05 09:23 30.34787 28.85828 41137 ft 545 kts 129°
2026-05-05 09:24 30.30423 28.93011 41135 ft 545 kts 129°
2026-05-05 09:24 30.26055 29.00188 41136 ft 546 kts 129°
2026-05-05 09:25 30.21681 29.07362 41113 ft 546 kts 129°
2026-05-05 09:25 30.17304 29.14531 41131 ft 545 kts 129°
2026-05-05 09:26 30.12936 29.21668 41129 ft 544 kts 129°
2026-05-05 09:26 30.08590 29.28759 41129 ft 544 kts 129°
2026-05-05 09:27 30.04209 29.35893 41131 ft 545 kts 129°
2026-05-05 09:27 29.99826 29.43022 41124 ft 545 kts 129°
2026-05-05 09:28 29.95443 29.50146 41123 ft 544 kts 129°
2026-05-05 09:28 29.91049 29.57258 41123 ft 545 kts 130°
2026-05-05 09:29 29.86646 29.64373 41120 ft 545 kts 130°
2026-05-05 09:29 29.82245 29.71476 41120 ft 545 kts 130°
2026-05-05 09:30 29.77846 29.78577 41119 ft 545 kts 129°
2026-05-05 09:30 29.73463 29.85691 41117 ft 545 kts 129°
2026-05-05 09:31 29.69048 29.92782 41116 ft 544 kts 129°
2026-05-05 09:31 29.64659 29.99805 41110 ft 544 kts 129°
2026-05-05 09:32 29.60253 30.06883 41112 ft 544 kts 129°
2026-05-05 09:32 29.55842 30.13952 41108 ft 544 kts 130°
2026-05-05 09:33 29.51422 30.21007 41110 ft 544 kts 130°
2026-05-05 09:33 29.46998 30.28051 41111 ft 544 kts 130°
2026-05-05 09:34 29.42570 30.35088 41110 ft 544 kts 130°
2026-05-05 09:34 29.37829 30.41768 41107 ft 538 kts 138°
2026-05-05 09:35 29.32709 30.47995 41109 ft 536 kts 139°
2026-05-05 09:35 29.24931 30.57170 41112 ft 535 kts 140°
2026-05-05 09:36 29.19761 30.63296 41131 ft 535 kts 140°
2026-05-05 09:36 29.14592 30.69422 41111 ft 535 kts 140°
2026-05-05 09:37 29.09421 30.75543 41138 ft 535 kts 139°
2026-05-05 09:37 29.04270 30.81688 41099 ft 535 kts 139°
2026-05-05 09:38 28.99115 30.87820 41122 ft 535 kts 139°
2026-05-05 09:38 28.93974 30.93872 41123 ft 534 kts 140°
2026-05-05 09:39 28.88803 30.99964 41131 ft 534 kts 139°
2026-05-05 09:39 28.83638 31.06044 41133 ft 534 kts 140°
2026-05-05 09:40 28.78449 31.12114 41136 ft 534 kts 140°
2026-05-05 09:40 28.73284 31.18200 41137 ft 534 kts 139°
2026-05-05 09:41 28.68128 31.24298 41119 ft 535 kts 138°
2026-05-05 09:41 28.63121 31.30584 41140 ft 536 kts 137°
2026-05-05 09:42 28.58989 31.35851 41141 ft 536 kts 138°
2026-05-05 09:42 28.53998 31.42156 41140 ft 536 kts 138°
2026-05-05 09:43 28.48184 31.49476 41141 ft 536 kts 137°
2026-05-05 09:43 28.43994 31.54751 41137 ft 536 kts 138°
2026-05-05 09:44 28.38975 31.61008 41137 ft 536 kts 138°
2026-05-05 09:44 28.34002 31.67247 41133 ft 536 kts 137°
2026-05-05 09:45 28.28996 31.73511 41128 ft 536 kts 138°
2026-05-05 09:45 28.23974 31.79749 41130 ft 535 kts 138°
2026-05-05 09:46 28.18950 31.85989 41124 ft 535 kts 138°
2026-05-05 09:46 28.13924 31.92208 41124 ft 535 kts 138°
2026-05-05 09:47 28.08917 31.98431 41119 ft 535 kts 138°
2026-05-05 09:47 28.04012 32.04789 41124 ft 541 kts 131°
2026-05-05 09:48 28.00080 32.12112 41101 ft 547 kts 123°
2026-05-05 09:48 27.96410 32.19680 41085 ft 549 kts 122°
2026-05-05 09:49 27.92783 32.27297 41086 ft 549 kts 122°
2026-05-05 09:49 27.89134 32.34884 41062 ft 549 kts 123°
2026-05-05 09:50 27.85477 32.42406 41050 ft 550 kts 123°
2026-05-05 09:50 27.81800 32.49982 41049 ft 550 kts 123°
2026-05-05 09:51 27.78126 32.57560 41044 ft 550 kts 123°
2026-05-05 09:51 27.74437 32.65134 41034 ft 550 kts 123°
2026-05-05 09:52 27.70742 32.72702 41040 ft 550 kts 124°
2026-05-05 09:52 27.67043 32.80253 41029 ft 550 kts 124°
2026-05-05 09:53 27.63357 32.87811 41034 ft 550 kts 123°
2026-05-05 09:53 27.59677 32.95362 41038 ft 549 kts 123°
2026-05-05 09:54 27.55992 33.02887 41040 ft 548 kts 124°
2026-05-05 09:54 27.52317 33.10335 41037 ft 547 kts 124°
2026-05-05 09:55 27.48611 33.17829 41018 ft 547 kts 124°
2026-05-05 09:55 27.44912 33.25311 41030 ft 546 kts 124°
2026-05-05 09:56 27.41216 33.32780 41029 ft 546 kts 124°
2026-05-05 09:56 27.37520 33.40247 41031 ft 546 kts 124°
2026-05-05 09:57 27.33819 33.47704 41025 ft 546 kts 124°
2026-05-05 09:57 27.30107 33.55145 41028 ft 545 kts 125°
2026-05-05 09:58 27.26401 33.62582 41028 ft 545 kts 124°
2026-05-05 09:58 27.22705 33.70024 41015 ft 545 kts 124°
2026-05-05 09:59 27.19003 33.77450 41048 ft 545 kts 124°
2026-05-05 09:59 27.15881 33.85264 41046 ft 550 kts 117°
2026-05-05 10:00 27.13031 33.93202 41044 ft 552 kts 116°
2026-05-05 10:00 27.10212 34.01212 41037 ft 551 kts 116°
2026-05-05 10:01 27.07376 34.09201 41026 ft 551 kts 116°
2026-05-05 10:01 27.04513 34.17170 41014 ft 550 kts 117°
2026-05-05 10:02 27.01652 34.25136 41015 ft 551 kts 117°
2026-05-05 10:02 26.98792 34.33098 41012 ft 550 kts 117°
2026-05-05 10:03 26.95922 34.41050 41012 ft 550 kts 117°
2026-05-05 10:03 26.93057 34.49001 40995 ft 550 kts 116°
2026-05-05 10:04 26.90208 34.56960 41004 ft 550 kts 116°
2026-05-05 10:04 26.87344 34.64908 41001 ft 550 kts 117°
2026-05-05 10:05 26.84461 34.72790 41001 ft 550 kts 117°
2026-05-05 10:05 26.81576 34.80718 40998 ft 550 kts 117°
2026-05-05 10:06 26.78702 34.88648 40993 ft 549 kts 117°
2026-05-05 10:06 26.75815 34.96566 40991 ft 549 kts 117°
2026-05-05 10:07 26.72919 35.04475 40988 ft 549 kts 118°
2026-05-05 10:07 26.70018 35.12374 40990 ft 549 kts 117°
2026-05-05 10:08 26.67138 35.20282 40988 ft 549 kts 117°
2026-05-05 10:08 26.64231 35.28174 40973 ft 549 kts 118°
2026-05-05 10:09 26.61312 35.36047 40977 ft 548 kts 118°
2026-05-05 10:09 26.58403 35.43918 40980 ft 548 kts 118°
2026-05-05 10:10 26.55486 35.51794 40962 ft 548 kts 118°
2026-05-05 10:10 26.52528 35.59562 40967 ft 546 kts 119°
2026-05-05 10:11 26.49521 35.67362 40971 ft 546 kts 118°
2026-05-05 10:11 26.46530 35.75158 40969 ft 546 kts 118°
2026-05-05 10:12 26.43554 35.82946 40959 ft 546 kts 119°
2026-05-05 10:12 26.40558 35.90729 40962 ft 545 kts 119°
2026-05-05 10:13 26.37556 35.98488 40963 ft 545 kts 120°
2026-05-05 10:13 26.34549 36.06242 40959 ft 545 kts 119°
2026-05-05 10:14 26.31548 36.13997 40960 ft 545 kts 118°
2026-05-05 10:14 26.28553 36.21765 40962 ft 545 kts 119°
2026-05-05 10:15 26.25570 36.29465 40961 ft 545 kts 119°
2026-05-05 10:15 26.22551 36.37218 40966 ft 546 kts 119°
2026-05-05 10:16 26.19655 36.45057 40970 ft 551 kts 112°
2026-05-05 10:16 26.18785 36.49238 40966 ft 559 kts 101°
2026-05-05 10:16 26.18586 36.53577 40964 ft 565 kts 89°
2026-05-05 10:17 26.19261 36.62313 40951 ft 569 kts 85°
2026-05-05 10:17 26.20212 36.71089 40955 ft 571 kts 85°
2026-05-05 10:18 26.21142 36.79870 40948 ft 571 kts 84°
2026-05-05 10:18 26.22035 36.88668 40950 ft 571 kts 85°
2026-05-05 10:19 26.22893 36.97452 40953 ft 571 kts 86°
2026-05-05 10:19 26.23741 37.06247 40954 ft 571 kts 85°
2026-05-05 10:20 26.24602 37.15036 40958 ft 571 kts 85°
2026-05-05 10:20 26.25452 37.23768 40945 ft 571 kts 86°
2026-05-05 10:21 26.26284 37.32561 40974 ft 571 kts 85°
2026-05-05 10:21 26.27115 37.41358 40971 ft 571 kts 86°
2026-05-05 10:22 26.27938 37.50157 40961 ft 571 kts 86°
2026-05-05 10:22 26.28764 37.58966 40968 ft 571 kts 85°
2026-05-05 10:23 26.29606 37.67752 40963 ft 570 kts 85°
2026-05-05 10:23 26.30431 37.76553 40963 ft 570 kts 86°
2026-05-05 10:24 26.31236 37.85344 40963 ft 570 kts 86°
2026-05-05 10:24 26.32038 37.94134 40966 ft 570 kts 85°
2026-05-05 10:25 26.32839 38.02941 40967 ft 572 kts 86°
2026-05-05 10:25 26.33621 38.11761 40961 ft 571 kts 87°
2026-05-05 10:26 26.34416 38.20570 40959 ft 571 kts 86°
2026-05-05 10:26 26.35235 38.29376 40970 ft 570 kts 86°
2026-05-05 10:27 26.35990 38.38110 40973 ft 569 kts 87°
2026-05-05 10:27 26.36738 38.46890 40977 ft 569 kts 87°
2026-05-05 10:28 26.37518 38.55672 40979 ft 570 kts 86°
2026-05-05 10:28 26.38305 38.64474 40985 ft 571 kts 87°
2026-05-05 10:29 26.39048 38.73288 40982 ft 569 kts 86°
2026-05-05 10:29 26.39805 38.82076 40985 ft 569 kts 86°
2026-05-05 10:30 26.40426 38.89384 40954 ft 569 kts 88°
2026-05-05 10:30 26.41258 38.99601 40982 ft 569 kts 88°
2026-05-05 10:31 26.41995 39.08395 41009 ft 570 kts 87°
2026-05-05 10:31 26.42627 39.15771 40970 ft 570 kts 87°
2026-05-05 10:32 26.43353 39.24525 40960 ft 570 kts 87°
2026-05-05 10:32 26.43994 39.33352 40967 ft 570 kts 89°
2026-05-05 10:33 26.44398 39.42173 40959 ft 569 kts 91°
2026-05-05 10:33 26.44758 39.50997 40968 ft 569 kts 90°
2026-05-05 10:34 26.45158 39.59821 40954 ft 569 kts 90°
2026-05-05 10:34 26.45592 39.68648 40969 ft 570 kts 89°
2026-05-05 10:35 26.46031 39.77468 40969 ft 570 kts 90°
2026-05-05 10:35 26.46442 39.86312 40971 ft 570 kts 90°
2026-05-05 10:36 26.46853 39.95142 40970 ft 570 kts 90°
2026-05-05 10:36 26.47266 40.03985 40957 ft 571 kts 90°
2026-05-05 10:37 26.47672 40.12843 40955 ft 572 kts 90°
2026-05-05 10:37 26.48061 40.21714 40953 ft 572 kts 90°
2026-05-05 10:38 26.48467 40.30585 40966 ft 573 kts 90°
2026-05-05 10:38 26.48866 40.39463 40940 ft 573 kts 89°
2026-05-05 10:39 26.49251 40.48347 40914 ft 573 kts 90°
2026-05-05 10:39 26.49613 40.57223 40932 ft 572 kts 90°
2026-05-05 10:40 26.50000 40.66085 40926 ft 571 kts 90°
2026-05-05 10:40 26.50381 40.74947 40929 ft 571 kts 90°
2026-05-05 10:41 26.50732 40.83810 40930 ft 571 kts 90°
2026-05-05 10:41 26.51071 40.92679 40907 ft 571 kts 90°
2026-05-05 10:42 26.51367 41.05912 40940 ft 565 kts 97°
2026-05-05 10:43 26.50840 41.14640 40910 ft 563 kts 98°
2026-05-05 10:43 26.50236 41.23302 40925 ft 562 kts 98°
2026-05-05 10:44 26.49602 41.32000 40912 ft 562 kts 99°
2026-05-05 10:44 26.48952 41.40693 40902 ft 562 kts 99°
2026-05-05 10:45 26.48319 41.49395 40894 ft 562 kts 98°
2026-05-05 10:45 26.47716 41.58090 40871 ft 562 kts 98°
2026-05-05 10:46 26.47079 41.66775 40908 ft 561 kts 99°
2026-05-05 10:46 26.46412 41.75451 40875 ft 561 kts 99°
2026-05-05 10:47 26.45750 41.84133 40872 ft 561 kts 99°
2026-05-05 10:47 26.45121 41.92762 40872 ft 561 kts 99°
2026-05-05 10:48 26.44468 42.01433 40868 ft 561 kts 99°
2026-05-05 10:48 26.43799 42.10102 40885 ft 561 kts 99°
2026-05-05 10:49 26.43151 42.18778 40880 ft 561 kts 99°
2026-05-05 10:49 26.42494 42.27441 40884 ft 560 kts 99°
2026-05-05 10:50 26.41815 42.36093 40891 ft 560 kts 100°
2026-05-05 10:50 26.41100 42.44745 40883 ft 559 kts 100°
2026-05-05 10:51 26.40403 42.53387 40889 ft 559 kts 99°
2026-05-05 10:51 26.39740 42.61975 40869 ft 559 kts 99°
2026-05-05 10:52 26.39055 42.70619 40887 ft 559 kts 99°
2026-05-05 10:52 26.38346 42.79259 40889 ft 559 kts 100°
2026-05-05 10:53 26.37604 42.87948 40889 ft 559 kts 99°
2026-05-05 10:53 26.36899 42.96525 40895 ft 559 kts 99°
2026-05-05 10:54 26.36206 43.05165 40885 ft 559 kts 99°
2026-05-05 10:54 26.35495 43.13795 40887 ft 558 kts 100°
2026-05-05 10:55 26.34739 43.22407 40893 ft 558 kts 100°
2026-05-05 10:55 26.33956 43.31012 40891 ft 557 kts 101°
2026-05-05 10:56 26.33172 43.39609 40895 ft 558 kts 101°
2026-05-05 10:56 26.32415 43.48214 40890 ft 558 kts 101°
2026-05-05 10:57 26.31668 43.56810 40903 ft 557 kts 101°
2026-05-05 10:57 26.30918 43.65412 40906 ft 557 kts 101°
2026-05-05 10:58 26.30167 43.73942 40918 ft 556 kts 101°
2026-05-05 10:58 26.29856 43.82597 40919 ft 561 kts 95°
2026-05-05 10:59 26.29895 43.91294 40907 ft 561 kts 94°
2026-05-05 10:59 26.29984 43.99983 40906 ft 561 kts 94°
2026-05-05 11:00 26.30062 44.08690 40890 ft 562 kts 94°
2026-05-05 11:00 26.30126 44.17412 40889 ft 562 kts 94°
2026-05-05 11:01 26.30180 44.26133 40887 ft 562 kts 94°
2026-05-05 11:01 26.30228 44.34838 40886 ft 561 kts 94°
2026-05-05 11:02 26.30272 44.43481 40878 ft 561 kts 94°
2026-05-05 11:02 26.30310 44.52182 40890 ft 560 kts 94°
2026-05-05 11:03 26.30349 44.60884 40897 ft 562 kts 94°
2026-05-05 11:03 26.30376 44.69574 40894 ft 561 kts 94°
2026-05-05 11:04 26.30398 44.78267 40893 ft 561 kts 94°
2026-05-05 11:04 26.30416 44.86970 40892 ft 561 kts 94°
2026-05-05 11:05 26.30433 44.95660 40893 ft 561 kts 94°
2026-05-05 11:05 26.30438 45.04340 40896 ft 561 kts 94°
2026-05-05 11:06 26.30436 45.13025 40892 ft 560 kts 94°
2026-05-05 11:06 26.30430 45.21708 40889 ft 560 kts 94°
2026-05-05 11:07 26.30420 45.30352 40889 ft 560 kts 95°
2026-05-05 11:07 26.30406 45.39026 40880 ft 560 kts 95°
2026-05-05 11:08 26.30385 45.47706 40857 ft 560 kts 95°
2026-05-05 11:08 26.30360 45.56317 40874 ft 559 kts 95°
2026-05-05 11:09 26.30328 45.64977 40810 ft 557 kts 90°
2026-05-05 11:09 26.30296 45.73548 40866 ft 553 kts 95°
2026-05-05 11:10 26.30252 45.82180 40876 ft 559 kts 95°
2026-05-05 11:10 26.30205 45.90855 40873 ft 560 kts 95°
2026-05-05 11:11 26.30156 45.99537 40876 ft 560 kts 95°
2026-05-05 11:11 26.30100 46.08221 40869 ft 560 kts 95°
2026-05-05 11:12 26.30039 46.16840 40870 ft 560 kts 95°
2026-05-05 11:12 26.29972 46.25517 40860 ft 560 kts 95°
2026-05-05 11:13 26.29905 46.34203 40856 ft 561 kts 95°
2026-05-05 11:13 26.29828 46.42893 40860 ft 561 kts 95°
2026-05-05 11:14 26.29745 46.51589 40854 ft 562 kts 95°
2026-05-05 11:14 26.29660 46.60304 40845 ft 562 kts 95°
2026-05-05 11:15 26.29563 46.69007 40844 ft 561 kts 95°
2026-05-05 11:15 26.29461 46.77713 40840 ft 561 kts 95°
2026-05-05 11:16 26.29356 46.86410 40835 ft 561 kts 95°
2026-05-05 11:16 26.29246 46.95101 40834 ft 561 kts 95°
2026-05-05 11:17 26.29132 47.03742 40829 ft 561 kts 95°
2026-05-05 11:17 26.29012 47.12437 40821 ft 561 kts 95°
2026-05-05 11:18 26.28886 47.21145 40815 ft 561 kts 95°
2026-05-05 11:18 26.28742 47.29839 40809 ft 562 kts 95°
2026-05-05 11:19 26.28607 47.37082 40808 ft 562 kts 95°
2026-05-05 11:19 26.28441 47.45789 40798 ft 562 kts 95°
2026-05-05 11:20 26.28273 47.54490 40792 ft 561 kts 95°
2026-05-05 11:20 26.28101 47.63186 40787 ft 561 kts 95°
2026-05-05 11:21 26.28582 47.71893 40784 ft 567 kts 81°
2026-05-05 11:21 26.30179 47.80496 40763 ft 568 kts 79°
2026-05-05 11:22 26.31959 47.89071 40762 ft 567 kts 78°
2026-05-05 11:22 26.33741 47.97627 40766 ft 566 kts 78°
2026-05-05 11:23 26.35486 48.06171 40762 ft 565 kts 79°
2026-05-05 11:23 26.37213 48.14707 40757 ft 564 kts 79°
2026-05-05 11:24 26.38933 48.23241 40742 ft 564 kts 79°
2026-05-05 11:24 26.40650 48.31785 40743 ft 563 kts 79°
2026-05-05 11:25 26.42348 48.40257 40747 ft 563 kts 79°
2026-05-05 11:25 26.44052 48.48782 40746 ft 563 kts 79°
2026-05-05 11:26 26.45751 48.57320 40742 ft 564 kts 79°
2026-05-05 11:26 26.47325 48.65892 40725 ft 562 kts 86°
2026-05-05 11:27 26.47786 48.74555 40727 ft 558 kts 91°
2026-05-05 11:27 26.47996 48.83210 40728 ft 558 kts 92°
2026-05-05 11:28 26.48155 48.91864 40725 ft 558 kts 92°
2026-05-05 11:28 26.48324 49.00514 40727 ft 558 kts 92°
2026-05-05 11:29 26.48502 49.09162 40710 ft 556 kts 92°
2026-05-05 11:29 26.48679 49.17786 40719 ft 555 kts 92°
2026-05-05 11:30 26.48850 49.26401 40714 ft 555 kts 92°
2026-05-05 11:30 26.49014 49.35015 40710 ft 555 kts 92°
2026-05-05 11:31 26.49173 49.43571 40710 ft 555 kts 92°
2026-05-05 11:31 26.49327 49.52183 40708 ft 555 kts 92°
2026-05-05 11:32 26.49476 49.60795 40709 ft 555 kts 92°
2026-05-05 11:32 26.49620 49.69410 40691 ft 555 kts 92°
2026-05-05 11:33 26.49759 49.78029 40693 ft 554 kts 92°
2026-05-05 11:33 26.49538 49.86594 40691 ft 551 kts 98°
2026-05-05 11:34 26.48929 49.95117 40702 ft 551 kts 98°
2026-05-05 11:34 26.48351 50.03645 40714 ft 551 kts 97°
2026-05-05 11:35 26.47842 50.12193 40727 ft 552 kts 97°
2026-05-05 11:35 26.47359 50.20738 40729 ft 552 kts 97°
2026-05-05 11:36 26.46871 50.29302 40733 ft 552 kts 97°
2026-05-05 11:36 26.46156 50.37801 40746 ft 547 kts 106°
2026-05-05 11:37 26.44192 50.45873 40753 ft 541 kts 112°
2026-05-05 11:37 26.41954 50.53876 40763 ft 541 kts 112°
2026-05-05 11:38 26.39673 50.61875 40755 ft 541 kts 112°
2026-05-05 11:38 26.37397 50.69857 40384 ft 537 kts 112°
2026-05-05 11:38 26.36265 50.73830 39593 ft 540 kts 112°
2026-05-05 11:39 26.35124 50.77834 38795 ft 544 kts 112°
2026-05-05 11:39 26.33973 50.81862 37962 ft 547 kts 112°
2026-05-05 11:39 26.32813 50.85913 37069 ft 550 kts 112°
2026-05-05 11:39 26.31647 50.89982 36223 ft 552 kts 112°
2026-05-05 11:40 26.30356 50.94013 35360 ft 550 kts 118°
2026-05-05 11:40 26.28674 50.97825 34539 ft 548 kts 123°
2026-05-05 11:40 26.26878 51.01569 33719 ft 549 kts 124°
2026-05-05 11:40 26.25035 51.05283 33009 ft 546 kts 124°
2026-05-05 11:41 26.23183 51.08951 32316 ft 542 kts 124°
2026-05-05 11:41 26.21329 51.12596 31700 ft 538 kts 124°
2026-05-05 11:41 26.19497 51.16208 31141 ft 533 kts 124°
2026-05-05 11:41 26.17689 51.19783 30573 ft 529 kts 124°
2026-05-05 11:42 26.15891 51.23341 30013 ft 525 kts 123°
2026-05-05 11:42 26.14109 51.26868 29422 ft 521 kts 123°
2026-05-05 11:42 26.12367 51.30317 28866 ft 515 kts 123°
2026-05-05 11:42 26.10622 51.33772 28336 ft 509 kts 123°
2026-05-05 11:43 26.08891 51.37197 27793 ft 504 kts 123°
2026-05-05 11:43 26.07183 51.40573 27265 ft 498 kts 122°
2026-05-05 11:43 26.05497 51.43912 26747 ft 492 kts 122°
2026-05-05 11:43 26.03821 51.47216 26221 ft 487 kts 122°
2026-05-05 11:44 26.02165 51.50478 25698 ft 482 kts 122°
2026-05-05 11:44 26.00526 51.53705 25179 ft 477 kts 121°
2026-05-05 11:44 25.98903 51.56898 24658 ft 472 kts 121°
2026-05-05 11:44 25.97296 51.60060 24146 ft 468 kts 121°
2026-05-05 11:45 25.95703 51.63192 23632 ft 463 kts 121°
2026-05-05 11:45 25.94124 51.66295 23071 ft 459 kts 120°
2026-05-05 11:45 25.92560 51.69365 22514 ft 453 kts 120°
2026-05-05 11:45 25.91025 51.72381 22009 ft 446 kts 120°
2026-05-05 11:46 25.89521 51.75372 21497 ft 440 kts 120°
2026-05-05 11:46 25.88070 51.78341 20986 ft 434 kts 120°
2026-05-05 11:46 25.86529 51.81146 20509 ft 428 kts 126°
2026-05-05 11:46 25.84681 51.83697 20002 ft 421 kts 134°
2026-05-05 11:47 25.82551 51.85885 19515 ft 414 kts 143°
2026-05-05 11:47 25.80201 51.87681 19021 ft 408 kts 151°
2026-05-05 11:47 25.77681 51.89074 18555 ft 401 kts 159°
2026-05-05 11:47 25.75053 51.90051 18095 ft 395 kts 167°
2026-05-05 11:48 25.69754 51.91355 17095 ft 386 kts 168°
2026-05-05 11:48 25.67130 51.91951 16646 ft 382 kts 173°
2026-05-05 11:48 25.64505 51.92103 16203 ft 376 kts 184°
2026-05-05 11:49 25.61937 51.91693 15758 ft 371 kts 196°
2026-05-05 11:49 25.59524 51.90748 15282 ft 366 kts 207°
2026-05-05 11:49 25.57346 51.89316 14810 ft 362 kts 218°
2026-05-05 11:49 25.55404 51.87552 14324 ft 360 kts 223°
2026-05-05 11:50 25.53550 51.85744 14049 ft 352 kts 224°
2026-05-05 11:50 25.51719 51.83962 13664 ft 349 kts 224°
2026-05-05 11:50 25.49876 51.82206 13228 ft 353 kts 222°
2026-05-05 11:50 25.47821 51.80602 12955 ft 368 kts 214°
2026-05-05 11:51 25.45622 51.79170 12404 ft 366 kts 212°
2026-05-05 11:51 25.43397 51.77771 11739 ft 367 kts 212°
2026-05-05 11:51 25.41240 51.76423 11398 ft 344 kts 212°
2026-05-05 11:51 25.39217 51.75157 10991 ft 324 kts 212°
2026-05-05 11:52 25.37321 51.73968 10399 ft 313 kts 212°
2026-05-05 11:52 25.35372 51.72862 9701 ft 309 kts 206°
2026-05-05 11:52 25.33378 51.72095 8947 ft 307 kts 196°
2026-05-05 11:52 25.31285 51.71695 8211 ft 305 kts 186°
2026-05-05 11:53 25.30190 51.71647 7980 ft 297 kts 180°
2026-05-05 11:53 25.28351 51.71793 7840 ft 302 kts 173°
2026-05-05 11:53 25.26302 51.72289 7733 ft 301 kts 163°
2026-05-05 11:54 25.24336 51.73073 7577 ft 300 kts 159°
2026-05-05 11:54 25.22405 51.73931 7351 ft 299 kts 158°
2026-05-05 11:54 25.20475 51.74793 7118 ft 298 kts 158°
2026-05-05 11:54 25.18566 51.75639 6937 ft 292 kts 158°
2026-05-05 11:55 25.16664 51.76479 6690 ft 296 kts 158°
2026-05-05 11:55 25.14767 51.77311 6298 ft 291 kts 158°
2026-05-05 11:55 25.12887 51.78142 5868 ft 291 kts 157°
2026-05-05 11:55 25.11031 51.78957 5404 ft 281 kts 158°
2026-05-05 11:56 25.09244 51.79735 4968 ft 273 kts 158°
2026-05-05 11:56 25.07502 51.80496 4713 ft 266 kts 158°
2026-05-05 11:56 25.05749 51.81048 4482 ft 260 kts 176°
2026-05-05 11:56 25.04013 51.80728 4231 ft 251 kts 205°
2026-05-05 11:57 25.02679 51.79546 3999 ft 247 kts 236°
2026-05-05 11:57 25.01903 51.77878 3850 ft 245 kts 251°
2026-05-05 11:57 25.01305 51.76116 3742 ft 246 kts 252°
2026-05-05 11:57 25.00824 51.74318 3649 ft 243 kts 265°
2026-05-05 11:58 25.01055 51.72513 3565 ft 238 kts 295°
2026-05-05 11:58 25.02063 51.71112 3516 ft 235 kts 324°
2026-05-05 11:58 25.03491 51.70251 3494 ft 234 kts 338°
2026-05-05 11:58 25.05013 51.69598 3495 ft 234 kts 339°
2026-05-05 11:59 25.06531 51.68945 3496 ft 234 kts 339°
2026-05-05 11:59 25.08047 51.68274 3459 ft 235 kts 338°
2026-05-05 11:59 25.09558 51.67593 3227 ft 233 kts 338°
2026-05-05 11:59 25.11044 51.66936 2913 ft 231 kts 339°
2026-05-05 12:00 25.12055 51.66493 2692 ft 230 kts 339°
2026-05-05 12:00 25.13508 51.65851 2397 ft 227 kts 339°
2026-05-05 12:00 25.14970 51.65207 2104 ft 223 kts 339°
2026-05-05 12:00 25.16364 51.64591 1836 ft 210 kts 338°
2026-05-05 12:01 25.17661 51.64018 1600 ft 197 kts 339°
2026-05-05 12:01 25.18881 51.63480 1358 ft 180 kts 339°
2026-05-05 12:01 25.20011 51.62980 1126 ft 169 kts 339°
2026-05-05 12:01 25.21058 51.62515 926 ft 156 kts 340°
2026-05-05 12:02 25.22039 51.62085 755 ft 148 kts 341°
2026-05-05 12:02 25.22974 51.61674 574 ft 141 kts 341°
2026-05-05 12:02 25.23875 51.61278 413 ft 139 kts 341°
2026-05-05 12:02 25.24787 51.60876 238 ft 141 kts 341°
2026-05-05 12:03 25.25683 51.60472 48 ft 138 kts 342°
2026-05-05 12:03 25.26490 51.60126 33 ft 99 kts 338°
2026-05-05 12:03 25.26934 51.59929 31 ft 40 kts 339°
2026-05-05 12:03 25.27173 51.59830 32 ft 36 kts 348°
2026-05-05 12:04 25.27357 51.59827 33 ft 11 kts
2026-05-05 12:04 25.27420 51.59861 34 ft 10 kts 56°
2026-05-05 12:04 25.27420 51.59911 35 ft 3 kts 131°
2026-05-05 12:04 25.27389 51.59929 35 ft 12 kts 156°
2026-05-05 12:05 25.27279 51.59979 35 ft 19 kts 158°
2026-05-05 12:05 25.27194 51.60016 35 ft 21 kts 158°
2026-05-05 12:05 25.27053 51.60079 34 ft 23 kts 158°
2026-05-05 12:05 25.26898 51.60146 34 ft 25 kts 159°
2026-05-05 12:06 25.26733 51.60218 34 ft 22 kts 158°
2026-05-05 12:06 25.26605 51.60276 35 ft 21 kts 158°
2026-05-05 12:06 25.26465 51.60338 35 ft 22 kts 159°
2026-05-05 12:06 25.26325 51.60399 36 ft 21 kts 158°
2026-05-05 12:07 25.26209 51.60449 36 ft 14 kts 158°
2026-05-05 12:07 25.26139 51.60503 36 ft 12 kts 110°
2026-05-05 12:07 25.26156 51.60591 36 ft 13 kts 68°
2026-05-05 12:07 25.26192 51.60691 36 ft 15 kts 68°
2026-05-05 12:08 25.26232 51.60801 36 ft 8 kts 68°
2026-05-05 12:08 25.26259 51.60847 36 ft 7 kts 33°
2026-05-05 12:08 25.26294 51.60841 36 ft 3 kts 326°
2026-05-05 12:08 25.26313 51.60819 36 ft 4 kts 313°
2026-05-05 12:09 25.26329 51.60800 36 ft 3 kts 313°
2026-05-05 12:09 25.26333 51.60795 36 ft 0 kts 313°